Miscellaneous Local Product
Issued by NWS North Platte, NE

Home | Current Version | Previous Version | Text Only | Print | Product List | Glossary Off
Versions: 1 2 3 4 5 6 7 8 9 10 11 12 13 14 15 16 17 18 19 20 21 22 23 24 25 26 27 28 29 30 31 32 33 34 35 36 37 38 39 40 41 42 43 44 45 46 47 48 49 50

000
AXUS43 KLBF 201510
MISLBF


WESTERN AND NORTH CENTRAL NEBRASKA HOURLY WEATHER ROUNDUP
NATIONAL WEATHER SERVICE NORTH PLATTE NE
900 AM CST MON FEB 20 2017

NOTE: "FAIR" INDICATES FEW OR NO CLOUDS BELOW 12,000 FEET WITH NO
SIGNIFICANT WEATHER AND/OR OBSTRUCTIONS TO VISIBILITY.

NOTE: STATIONS NOT REPORTING VARIABLES SUCH AS SKY/WEATHER OR
PRESSURE ARE PROVIDED BY RAWS AND APRS NETWORKS AND ARE NOT UNDER
NATIONAL WEATHER SERVICE QUALITY CONTROL.

...OBSERVATIONS IN AND NEAR THE EASTERN PANHANDLE OF NEBRASKA...

CITY           SKY/WX    TMP DP  RH WIND       PRES   REMARKS
PINE RIDGE     CLOUDY    39  37  92 SW8       29.83R WCI  33
CHADRON        MOSUNNY   40  29  64 W24G32    29.87R WCI  29
ALLIANCE       SUNNY     40  24  53 W16       29.86R WCI  31
SIDNEY         SUNNY     41  22  46 NW18      29.90R
CRESCENT LAKE    N/A     40  26  57 NW13G20     N/A  WCI  32
$$

...OBSERVATIONS IN NORTHERN NEBRASKA AND FAR SOUTHERN SOUTH DAKOTA...

CITY           SKY/WX    TMP DP  RH WIND       PRES   REMARKS
WINNER         PTSUNNY   49  40  71 NW22G31   29.69R
VALENTINE      LGT RAIN  46  38  73 NW21G30   29.73R
THEDFORD       CLOUDY    48  39  71 NW23G31   29.78R
AINSWORTH      CLOUDY    47  40  78 NW17G24   29.73R
O`NEILL        CLOUDY    53  50  89 SW9       29.67S
ORD            PTSUNNY   52  47  83 W9        29.70R HAZE
BROKEN BOW     PTSUNNY   48  40  73 NW9       29.73R
VALENTINE NWR    N/A     46  38  75 NW15G23     N/A
HALSEY           N/A     47  37  68 W9          N/A
CHAMBERS         N/A     53  51  94 W3          N/A
EWING            N/A     54  52  94 S5          N/A
$$

...OBSERVATIONS IN SOUTHWEST NEBRASKA AND FAR NORTHEAST COLORADO...

CITY           SKY/WX    TMP DP  RH WIND       PRES   REMARKS
HOLYOKE        FAIR      46  19  34 NW17G32   29.89R
IMPERIAL       SUNNY     47  19  33 NW24G35   29.84R
OGALLALA       SUNNY     46  26  46 NW20      29.86R
NORTH PLATTE   CLOUDY    49  29  46 NW20G28   29.79R
MCCOOK         MOSUNNY   51  30  44 W20G29    29.79R
LEXINGTON      MOSUNNY   46  39  77 NW10      29.74R
STAPLETON        N/A     47  40  76 W3          N/A
GOTHENBURG       N/A     47  29  49 W8          N/A
CALLAWAY         N/A     46  39  77 NW15        N/A
$$

...OBSERVATIONS IN CENTRAL LINCOLN COUNTY AREA...

CITY           SKY/WX    TMP DP  RH WIND       PRES   REMARKS
N.P. AIRPORT   CLOUDY    49  29  46 NW20G28   29.79R
N.P. DOWNTOWN    N/A     47  31  53 W10G17      N/A
N.P. SOUTHEAST   N/A     47  30  51 NW6G14      N/A
N.P. HILLCREST   N/A     48  34  58 NW15G24     N/A
$$

...SOME OBSERVATIONS FROM AROUND THE REGION...

CITY           SKY/WX    TMP DP  RH WIND       PRES   REMARKS
LARAMIE        SUNNY     33  16  49 W21       29.97R WCI  21
CHEYENNE       SUNNY     39  18  42 NW20G26   29.96R WCI  29
DENVER         MOSUNNY   40  19  43 W9        29.99R WCI  34
AKRON          SUNNY     41  19  41 NW8       29.94R
SCOTTSBLUFF    SUNNY     38  22  52 NW9       29.91R WCI  31
RAPID CITY     MOSUNNY   43  38  82 NW3       29.79R
BISMARCK       CLOUDY    37  35  92 W8        29.72R FOG     WCI  31
PIERRE         CLOUDY    43  39  86 NW24G32   29.68R
SIOUX FALLS    CLOUDY    55  55 100 S12       29.68F FOG
OMAHA          LGT RAIN  58  55  90 S12       29.75F FOG
GRAND ISLAND   MOSUNNY   56  55  97 SW14      29.72R
KANSAS CITY    LGT RAIN  59  57  93 S17       29.82F
WICHITA        CLOUDY    56  54  93 S10       29.80S
OKLAHOMA CITY  CLOUDY    55  53  93 SE9       29.86R
DALLAS         CLOUDY    59  57  93 S13       29.95R
AMARILLO       SUNNY     46  33  60 NW16      29.92R
DODGE CITY     MOSUNNY   49  36  61 NW12      29.83R
HAYS           CLOUDY    49  44  83 W7        29.79R
GOODLAND       SUNNY     48  19  31 NW22      29.88R
$$




USA.gov is the U.S. government's official web portal to all federal, state and local government web resources and services.